TimeEDT,TemperatureF,Dew PointF,Humidity,Sea Level PressureIn,VisibilityMPH,Wind Direction,Wind SpeedMPH,Gust SpeedMPH,PrecipitationIn,Events,Conditions,WindDirDegrees,DateUTC
12:15 AM,69.8,59.0,68,30.14,10.0,Calm,Calm,-,N/A,,Scattered Clouds,0,2013-04-18 04:15:00
12:35 AM,69.8,59.0,68,30.14,10.0,Calm,Calm,-,N/A,,Scattered Clouds,0,2013-04-18 04:35:00
12:55 AM,69.8,59.0,68,30.13,10.0,ESE,3.5,-,N/A,,Mostly Cloudy,120,2013-04-18 04:55:00
1:15 AM,69.8,59.0,68,30.13,10.0,Calm,Calm,-,N/A,,Scattered Clouds,0,2013-04-18 05:15:00
1:35 AM,66.2,60.8,83,30.13,10.0,Calm,Calm,-,N/A,,Scattered Clouds,0,2013-04-18 05:35:00
1:55 AM,66.2,60.8,83,30.13,10.0,NNE,3.5,-,N/A,,Scattered Clouds,30,2013-04-18 05:55:00
2:15 AM,66.2,60.8,83,30.13,10.0,North,3.5,-,N/A,,Scattered Clouds,10,2013-04-18 06:15:00
2:35 AM,66.2,60.8,83,30.14,10.0,North,4.6,-,N/A,,Scattered Clouds,10,2013-04-18 06:35:00
2:55 AM,66.2,62.6,88,30.14,10.0,NNE,5.8,-,N/A,,Scattered Clouds,20,2013-04-18 06:55:00
3:15 AM,66.2,62.6,88,30.14,10.0,North,4.6,-,N/A,,Mostly Cloudy,360,2013-04-18 07:15:00
3:35 AM,64.4,60.8,88,30.14,10.0,NNE,5.8,-,N/A,,Scattered Clouds,20,2013-04-18 07:35:00
3:55 AM,64.4,60.8,88,30.13,10.0,NNE,3.5,-,N/A,,Scattered Clouds,20,2013-04-18 07:55:00
4:15 AM,64.4,60.8,88,30.13,10.0,North,4.6,-,N/A,,Scattered Clouds,10,2013-04-18 08:15:00
4:35 AM,64.4,60.8,88,30.13,10.0,North,3.5,-,N/A,,Scattered Clouds,360,2013-04-18 08:35:00
4:55 AM,64.4,60.8,88,30.13,10.0,North,4.6,-,N/A,,Mostly Cloudy,10,2013-04-18 08:55:00
5:15 AM,64.4,60.8,88,30.12,10.0,North,3.5,-,N/A,,Mostly Cloudy,10,2013-04-18 09:15:00
5:35 AM,62.6,60.8,94,30.13,10.0,North,3.5,-,N/A,,Mostly Cloudy,360,2013-04-18 09:35:00
5:55 AM,62.6,60.8,94,30.13,10.0,North,4.6,-,N/A,,Mostly Cloudy,360,2013-04-18 09:55:00
6:15 AM,62.6,60.8,94,30.14,10.0,North,3.5,-,N/A,,Overcast,10,2013-04-18 10:15:00
6:35 AM,62.6,60.8,94,30.15,10.0,North,4.6,-,N/A,,Overcast,10,2013-04-18 10:35:00
6:55 AM,62.6,60.8,94,30.16,7.0,NNE,3.5,-,N/A,,Overcast,20,2013-04-18 10:55:00
7:15 AM,62.6,60.8,94,30.16,7.0,NNE,3.5,-,N/A,,Overcast,20,2013-04-18 11:15:00
7:35 AM,62.6,60.8,94,30.16,5.0,NNE,3.5,-,N/A,,Overcast,20,2013-04-18 11:35:00
7:55 AM,62.6,60.8,94,30.17,7.0,Calm,Calm,-,N/A,,Mostly Cloudy,0,2013-04-18 11:55:00
8:15 AM,64.4,60.8,88,30.17,7.0,Calm,Calm,-,N/A,,Overcast,0,2013-04-18 12:15:00
8:35 AM,66.2,62.6,88,30.18,7.0,Calm,Calm,-,N/A,,Mostly Cloudy,0,2013-04-18 12:35:00
8:55 AM,66.2,62.6,88,30.18,10.0,South,4.6,-,N/A,,Mostly Cloudy,170,2013-04-18 12:55:00
9:15 AM,66.2,60.8,83,30.18,10.0,South,5.8,-,N/A,,Scattered Clouds,170,2013-04-18 13:15:00
9:35 AM,68.0,60.8,78,30.18,10.0,South,6.9,-,N/A,,Mostly Cloudy,190,2013-04-18 13:35:00
9:55 AM,69.8,60.8,73,30.18,10.0,South,6.9,-,N/A,,Mostly Cloudy,180,2013-04-18 13:55:00
10:15 AM,69.8,62.6,78,30.18,10.0,SSW,6.9,-,N/A,,Overcast,210,2013-04-18 14:15:00
10:35 AM,69.8,57.2,64,30.18,10.0,South,5.8,-,N/A,,Overcast,180,2013-04-18 14:35:00
10:55 AM,71.6,57.2,60,30.17,10.0,SSW,5.8,-,N/A,,Mostly Cloudy,200,2013-04-18 14:55:00
11:15 AM,73.4,57.2,57,30.17,10.0,South,9.2,-,N/A,,Mostly Cloudy,180,2013-04-18 15:15:00
11:35 AM,75.2,57.2,53,30.17,10.0,South,6.9,-,N/A,,Scattered Clouds,190,2013-04-18 15:35:00
11:55 AM,75.2,59.0,57,30.16,10.0,South,8.1,-,N/A,,Mostly Cloudy,170,2013-04-18 15:55:00
12:15 PM,75.2,57.2,53,30.15,10.0,South,10.4,-,N/A,,Overcast,180,2013-04-18 16:15:00
12:35 PM,77.0,57.2,50,30.14,10.0,South,9.2,-,N/A,,Mostly Cloudy,170,2013-04-18 16:35:00
12:55 PM,77.0,57.2,50,30.14,10.0,South,10.4,-,N/A,,Mostly Cloudy,180,2013-04-18 16:55:00
1:15 PM,75.2,57.2,53,30.13,10.0,South,8.1,-,N/A,,Mostly Cloudy,170,2013-04-18 17:15:00
1:35 PM,78.8,55.4,44,30.12,10.0,South,13.8,18.4,N/A,,Mostly Cloudy,170,2013-04-18 17:35:00
1:55 PM,77.0,53.6,44,30.12,10.0,South,13.8,23.0,N/A,,Mostly Cloudy,170,2013-04-18 17:55:00
2:15 PM,78.8,53.6,42,30.11,10.0,SSE,15.0,20.7,N/A,,Mostly Cloudy,160,2013-04-18 18:15:00
2:35 PM,78.8,51.8,39,30.11,10.0,South,13.8,20.7,N/A,,Mostly Cloudy,180,2013-04-18 18:35:00
2:55 PM,78.8,51.8,39,30.10,10.0,SSE,11.5,20.7,N/A,,Scattered Clouds,150,2013-04-18 18:55:00
3:15 PM,78.8,53.6,42,30.09,10.0,South,13.8,21.9,N/A,,Scattered Clouds,170,2013-04-18 19:15:00
3:35 PM,78.8,51.8,39,30.08,10.0,SSE,13.8,18.4,N/A,,Mostly Cloudy,150,2013-04-18 19:35:00
3:55 PM,78.8,51.8,39,30.07,10.0,South,10.4,-,N/A,,Mostly Cloudy,170,2013-04-18 19:55:00
4:35 PM,78.8,51.8,39,30.06,10.0,SSE,13.8,18.4,N/A,,Mostly Cloudy,160,2013-04-18 20:35:00
4:55 PM,78.8,51.8,39,30.06,10.0,South,10.4,18.4,N/A,,Mostly Cloudy,170,2013-04-18 20:55:00
5:15 PM,78.8,51.8,39,30.05,10.0,South,10.4,-,N/A,,Scattered Clouds,170,2013-04-18 21:15:00
5:35 PM,78.8,48.2,34,30.05,10.0,South,19.6,-,N/A,,Scattered Clouds,190,2013-04-18 21:35:00
5:55 PM,78.8,50.0,36,30.04,10.0,South,11.5,-,N/A,,Scattered Clouds,190,2013-04-18 21:55:00
6:15 PM,78.8,50.0,36,30.04,10.0,South,12.7,18.4,N/A,,Mostly Cloudy,170,2013-04-18 22:15:00
6:35 PM,78.8,51.8,39,30.03,10.0,SSE,11.5,-,N/A,,Mostly Cloudy,160,2013-04-18 22:35:00
6:55 PM,78.8,51.8,39,30.02,10.0,South,12.7,17.3,N/A,,Mostly Cloudy,180,2013-04-18 22:55:00
7:15 PM,77.0,53.6,44,30.02,10.0,South,11.5,17.3,N/A,,Mostly Cloudy,170,2013-04-18 23:15:00
7:35 PM,75.2,53.6,47,30.02,10.0,South,5.8,-,N/A,,Scattered Clouds,170,2013-04-18 23:35:00
7:55 PM,73.4,53.6,50,30.02,10.0,South,6.9,-,N/A,,Clear,170,2013-04-18 23:55:00
8:15 PM,73.4,55.4,53,30.03,10.0,South,5.8,-,N/A,,Scattered Clouds,170,2013-04-19 00:15:00
8:35 PM,71.6,53.6,53,30.03,10.0,SSE,4.6,-,N/A,,Scattered Clouds,160,2013-04-19 00:35:00
8:55 PM,71.6,55.4,57,30.03,10.0,SSE,3.5,-,N/A,,Clear,150,2013-04-19 00:55:00
9:15 PM,69.8,55.4,60,30.03,10.0,Calm,Calm,-,N/A,,Clear,0,2013-04-19 01:15:00
9:35 PM,69.8,55.4,60,30.03,10.0,South,6.9,-,N/A,,Clear,170,2013-04-19 01:35:00
10:55 PM,69.8,53.6,56,30.01,10.0,South,10.4,16.1,N/A,,Clear,170,2013-04-19 02:55:00
11:35 PM,69.8,53.6,56,30.01,10.0,South,11.5,-,N/A,,Clear,180,2013-04-19 03:35:00
11:55 PM,69.8,53.6,56,30.01,10.0,South,10.4,-,N/A,,Clear,170,2013-04-19 03:55:00